Location: Mohawk View
(42.7837°N, 73.7885°W)
Time: 07:32:18
(UTC+00:00)

Cosmos 1943 Rocket - Pass Details

Date: 17 June 2021
Orbit: 813 x 843 km, 71.0° (Epoch: 03 August)

Event Time Altitude Azimuth Distance (km) Brightness Sun altitude
Rises 05:40:38 0° 335° (NNW) 3,345 6.1 -23.0°
Reaches altitude 10° 05:43:03 10° 336° (NNW) 2,410 5.3 -23.0°
Maximum altitude 05:48:35 89° 62° (ENE) 821 2.0 -22.7°
Enters shadow 05:50:18 46° 156° (SSE) 1,082 2.4 -22.7°
